Total_Precipitation_Accumulation
1.92 1.82 2.68 4.06 4.30 3.59 3.05 2.55 1.93 1.53 1.04 0.86 0.81 0.94 1.23 1.60 1.92 2.25 2.54 2.42 1.61 1.33 1.39 2.11 2.99 2.88 2.59 2.51 2.49 2.43 2.40 2.34 2.12 1.95 1.80 1.71 1.53 1.48 1.51 1.50 1.48 1.40 1.31 1.42 1.64 1.83 1.90 1.84 1.84
1.53 2.18 3.21 4.46 4.02 3.22 2.92 2.48 1.89 1.27 0.79 0.63 0.55 0.66 0.78 0.76 0.82 1.40 2.42 2.45 1.37 1.09 1.18 1.64 2.43 2.38 2.29 2.26 2.16 2.12 2.02 1.88 1.91 1.88 1.70 1.62 1.52 1.54 1.60 1.55 1.45 1.37 1.30 1.39 1.59 1.78 1.77 1.80 1.86
1.72 2.82 3.79 4.01 3.23 2.97 2.89 2.26 1.54 0.87 0.55 0.50 0.50 0.52 0.61 0.88 1.03 1.54 2.20 1.76 1.10 0.92 1.12 1.68 2.22 2.17 2.16 2.10 1.90 1.91 1.77 1.64 1.64 1.68 1.60 1.61 1.51 1.47 1.50 1.50 1.46 1.44 1.43 1.44 1.57 1.62 1.64 1.74 1.80
1.91 3.02 3.35 3.11 2.79 2.35 2.00 1.64 1.20 1.00 0.64 0.38 0.36 0.49 0.56 0.95 1.26 1.46 1.52 1.24 1.03 1.04 1.09 1.46 1.91 1.94 1.93 1.84 1.77 1.76 1.65 1.64 1.56 1.50 1.50 1.55 1.50 1.43 1.38 1.46 1.43 1.40 1.55 1.68 1.69 1.69 1.78 1.77 1.80
2.41 3.08 2.96 2.57 2.32 1.91 1.44 1.13 0.96 0.98 0.77 0.44 0.33 0.54 0.81 1.20 1.33 1.19 1.08 0.91 0.89 0.97 0.96 1.19 1.71 1.73 1.70 1.70 1.72 1.76 1.70 1.67 1.56 1.46 1.51 1.63 1.56 1.49 1.42 1.49 1.48 1.42 1.46 1.66 1.69 1.68 1.74 1.70 1.74
2.69 2.73 2.75 2.42 2.28 1.87 1.44 1.03 0.82 0.77 0.62 0.42 0.34 0.56 0.91 1.22 1.40 1.24 1.10 1.09 1.05 1.08 0.98 1.09 1.65 1.76 1.66 1.69 1.65 1.68 1.74 1.69 1.57 1.46 1.43 1.50 1.49 1.42 1.41 1.41 1.50 1.48 1.45 1.53 1.58 1.57 1.62 1.47 1.47
2.58 2.53 2.35 1.98 2.12 2.28 1.68 1.04 0.87 0.85 0.68 0.47 0.34 0.60 0.93 1.18 1.19 1.15 1.22 1.29 1.28 1.35 1.29 1.33 1.47 1.55 1.67 1.70 1.62 1.76 1.87 1.77 1.57 1.40 1.36 1.32 1.36 1.35 1.34 1.35 1.48 1.48 1.47 1.49 1.50 1.52 1.57 1.46 1.35
2.03 2.08 1.93 1.94 2.17 2.38 1.56 1.03 0.84 0.79 0.69 0.35 0.30 0.58 0.89 0.88 0.89 1.04 1.18 1.22 1.21 1.28 1.27 1.32 1.41 1.41 1.43 1.52 1.71 1.90 2.21 2.08 1.70 1.44 1.27 1.24 1.20 1.21 1.32 1.31 1.42 1.48 1.52 1.59 1.60 1.62 1.58 1.54 1.39
1.87 2.21 2.34 2.43 2.43 2.12 1.40 1.21 0.94 0.63 0.55 0.41 0.37 0.48 0.57 0.56 0.72 0.85 1.00 1.01 0.98 0.97 1.04 1.15 1.22 1.25 1.32 1.31 1.51 1.91 2.27 2.30 1.90 1.56 1.42 1.20 0.91 0.90 1.12 1.29 1.51 1.62 1.67 1.78 1.86 1.83 1.72 1.58 1.44
1.82 2.17 2.13 1.88 1.58 1.31 1.14 1.05 0.89 0.77 0.77 0.61 0.51 0.48 0.51 0.55 0.76 0.85 0.87 0.93 0.87 0.78 0.74 0.77 0.81 0.92 1.01 1.02 1.32 1.61 1.66 1.85 1.59 1.51 1.39 1.25 1.18 1.12 0.97 1.10 1.51 1.74 1.74 1.82 1.93 1.94 1.70 1.38 1.21
1.60 1.67 1.50 1.37 1.05 0.84 0.84 0.76 0.66 0.68 0.77 0.66 0.63 0.49 0.53 0.59 0.69 0.73 0.70 0.70 0.72 0.71 0.67 0.62 0.62 0.70 0.85 0.98 1.16 1.36 1.51 1.66 1.64 1.57 1.51 1.53 1.52 1.18 1.04 1.10 1.23 1.40 1.48 1.43 1.51 1.54 1.36 1.18 1.13
1.55 1.29 1.16 1.09 0.77 0.75 0.77 0.64 0.57 0.55 0.52 0.39 0.48 0.43 0.48 0.55 0.58 0.56 0.57 0.60 0.59 0.62 0.71 0.66 0.52 0.54 0.63 0.72 0.91 1.09 1.29 1.48 1.51 1.32 1.24 1.38 1.43 1.24 1.12 1.25 1.32 1.38 1.44 1.49 1.48 1.39 1.23 1.03 1.03
1.48 1.40 1.15 1.01 0.77 0.75 0.69 0.63 0.54 0.46 0.41 0.33 0.39 0.49 0.54 0.60 0.59 0.53 0.51 0.55 0.56 0.62 0.69 0.72 0.63 0.57 0.60 0.66 0.75 0.79 1.08 1.24 1.37 1.43 1.20 1.30 1.36 1.30 1.19 1.15 1.33 1.32 1.38 1.40 1.46 1.47 1.34 1.24 1.15
1.35 1.26 1.04 0.94 0.84 0.75 0.68 0.60 0.55 0.47 0.41 0.38 0.44 0.55 0.59 0.63 0.64 0.59 0.54 0.50 0.48 0.58 0.66 0.68 0.70 0.68 0.68 0.69 0.70 0.68 0.74 0.83 0.91 0.87 0.84 1.02 1.17 1.19 1.20 1.08 1.15 1.25 1.42 1.62 1.67 1.50 1.42 1.35 1.31
1.08 1.19 1.26 1.05 0.86 0.69 0.70 0.81 0.60 0.52 0.50 0.48 0.50 0.53 0.58 0.56 0.57 0.55 0.51 0.48 0.48 0.54 0.61 0.66 0.71 0.77 0.77 0.79 0.85 0.80 0.74 0.76 0.74 0.70 0.70 0.80 0.92 1.01 1.13 1.16 1.14 1.18 1.41 1.66 1.82 1.67 1.55 1.40 1.39
1.14 1.33 1.63 1.31 1.09 0.85 0.93 1.10 0.58 0.52 0.57 0.53 0.49 0.47 0.46 0.44 0.46 0.48 0.49 0.50 0.52 0.53 0.51 0.54 0.56 0.64 0.68 0.74 0.80 0.89 0.88 0.87 0.83 0.85 0.81 0.77 0.90 1.03 1.14 1.23 1.18 1.19 1.38 1.63 1.85 1.90 1.88 1.78 1.68
1.30 1.28 1.29 1.26 1.09 0.90 0.88 0.84 0.50 0.48 0.57 0.59 0.51 0.47 0.44 0.34 0.34 0.38 0.39 0.43 0.47 0.47 0.41 0.40 0.44 0.47 0.49 0.54 0.63 0.76 0.83 0.90 0.97 0.97 0.97 0.98 1.05 1.07 1.19 1.39 1.40 1.38 1.50 1.61 1.66 1.78 1.80 1.85 1.84
0.99 0.91 0.93 1.05 0.89 0.86 0.81 0.60 0.44 0.46 0.52 0.54 0.57 0.52 0.45 0.31 0.26 0.25 0.29 0.34 0.36 0.37 0.37 0.39 0.40 0.39 0.38 0.41 0.52 0.65 0.72 0.78 0.98 1.05 1.08 1.36 1.49 1.29 1.26 1.41 1.42 1.46 1.65 1.72 1.83 2.03 1.95 1.85 1.94
0.70 0.65 0.74 0.76 0.64 0.77 0.72 0.54 0.44 0.40 0.39 0.40 0.47 0.48 0.44 0.33 0.22 0.15 0.14 0.19 0.25 0.24 0.23 0.28 0.32 0.37 0.37 0.32 0.38 0.52 0.65 0.77 0.92 1.10 1.14 1.35 1.48 1.41 1.43 1.45 1.46 1.50 1.58 1.65 1.83 2.18 2.20 2.00 1.89
0.65 0.68 0.71 0.66 0.58 0.66 0.72 0.58 0.46 0.36 0.32 0.34 0.36 0.40 0.38 0.30 0.20 0.14 0.11 0.13 0.18 0.22 0.17 0.18 0.22 0.30 0.37 0.40 0.45 0.60 0.79 0.91 1.03 1.21 1.26 1.34 1.37 1.37 1.31 1.47 1.56 1.53 1.67 1.76 1.93 2.22 2.42 2.18 1.98
0.58 0.65 0.61 0.63 0.67 0.62 0.70 0.76 0.57 0.39 0.34 0.34 0.33 0.34 0.32 0.23 0.19 0.16 0.14 0.12 0.12 0.16 0.13 0.16 0.23 0.37 0.53 0.69 0.92 1.18 1.48 1.65 1.57 1.46 1.52 1.62 1.68 1.62 1.56 1.65 1.76 1.68 1.73 1.84 1.90 2.01 2.46 2.58 2.31
0.65 0.44 0.41 0.50 0.73 0.74 0.62 0.82 0.59 0.40 0.39 0.40 0.36 0.31 0.27 0.23 0.21 0.18 0.15 0.14 0.14 0.20 0.25 0.34 0.46 0.62 0.78 0.98 1.21 1.47 1.73 1.93 1.97 2.02 2.06 2.02 1.96 1.84 1.72 1.73 1.78 1.78 1.84 1.82 1.69 1.87 2.33 2.80 2.82
0.52 0.43 0.41 0.47 0.64 0.63 0.56 0.60 0.52 0.42 0.48 0.49 0.47 0.41 0.36 0.33 0.31 0.30 0.28 0.25 0.25 0.36 0.49 0.60 0.81 0.98 1.12 1.18 1.27 1.49 1.59 1.68 1.80 1.97 2.03 2.04 1.97 1.85 1.69 1.63 1.72 1.77 1.84 1.83 1.90 2.09 2.39 2.68 2.95
0.42 0.50 0.53 0.58 0.66 0.63 0.44 0.45 0.54 0.44 0.49 0.58 0.54 0.47 0.42 0.39 0.36 0.38 0.41 0.41 0.44 0.65 0.88 1.00 1.11 1.21 1.20 1.18 1.19 1.32 1.46 1.56 1.66 1.83 1.89 1.84 1.73 1.69 1.62 1.58 1.58 1.55 1.61 1.71 1.91 2.16 2.30 2.49 2.74
0.40 0.61 0.77 0.78 0.71 0.50 0.28 0.34 0.45 0.36 0.34 0.42 0.45 0.42 0.38 0.31 0.30 0.35 0.43 0.56 0.75 0.98 1.19 1.32 1.32 1.22 1.08 1.06 1.12 1.17 1.33 1.50 1.56 1.57 1.59 1.59 1.53 1.46 1.45 1.46 1.43 1.34 1.32 1.44 1.66 1.92 1.98 2.09 2.33
0.35 0.44 0.66 0.73 0.61 0.44 0.32 0.46 0.49 0.36 0.27 0.24 0.24 0.26 0.31 0.34 0.41 0.42 0.47 0.66 0.94 1.19 1.42 1.68 1.66 1.42 1.20 1.15 1.20 1.23 1.33 1.41 1.40 1.32 1.34 1.36 1.32 1.25 1.17 1.20 1.23 1.21 1.21 1.24 1.38 1.55 1.60 1.68 1.90
0.32 0.33 0.34 0.51 0.45 0.40 0.35 0.41 0.37 0.26 0.20 0.19 0.22 0.27 0.36 0.42 0.51 0.60 0.70 0.79 1.00 1.22 1.54 1.82 1.87 1.67 1.51 1.42 1.34 1.35 1.28 1.21 1.14 1.05 1.05 1.07 1.10 1.02 0.98 1.04 1.14 1.20 1.15 1.12 1.21 1.35 1.38 1.50 1.66
0.26 0.28 0.31 0.52 0.60 0.56 0.41 0.41 0.34 0.22 0.17 0.19 0.30 0.36 0.42 0.50 0.52 0.68 0.93 1.13 1.37 1.31 1.44 1.69 1.62 1.54 1.52 1.52 1.50 1.39 1.25 1.14 1.10 1.02 1.02 0.98 1.02 0.95 0.95 0.96 0.96 0.99 0.99 1.04 1.20 1.36 1.43 1.44 1.51
0.24 0.27 0.29 0.39 0.42 0.57 0.65 0.54 0.31 0.27 0.27 0.33 0.42 0.44 0.49 0.56 0.60 0.75 0.93 1.08 1.25 1.35 1.36 1.40 1.39 1.39 1.36 1.29 1.23 1.10 0.91 0.81 0.82 0.84 0.82 0.76 0.78 0.74 0.75 0.71 0.75 0.88 0.90 0.90 1.05 1.15 1.17 1.29 1.39
0.27 0.30 0.32 0.50 0.52 0.50 0.73 0.75 0.41 0.40 0.44 0.53 0.60 0.64 0.68 0.69 0.73 0.83 0.91 1.05 1.12 1.12 1.16 1.23 1.16 1.14 1.11 1.00 0.90 0.77 0.64 0.58 0.63 0.64 0.60 0.53 0.54 0.50 0.55 0.59 0.59 0.78 0.94 0.97 1.00 1.01 1.00 1.11 1.21